Temperature
2 2 2 2 2 2 2 3 2 2 3 4 5 6 6 6 6 6 6 7 7 7 7 7 7 7 7 8 8 8 8 7 7 7 7 7 7 7
2 2 2 2 2 2 2 2 2 2 2 3 4 5 5 5 5 6 6 6 6 6 6 7 7 7 7 7 7 7 7 7 7 7 7 6 6 6
1 1 2 2 2 2 2 2 2 2 2 3 3 4 4 5 5 5 5 5 6 6 6 6 6 6 6 7 7 7 7 7 7 7 6 6 6 6
1 1 1 1 1 2 2 2 2 2 2 2 3 3 4 4 4 4 5 5 5 5 6 6 6 6 6 6 6 6 6 7 6 6 6 6 5 5
1 1 1 1 1 1 1 1 1 2 2 2 2 2 3 3 4 4 4 4 5 5 5 5 5 5 5 6 6 6 6 6 6 6 5 5 5 5
0 0 1 1 1 1 1 1 1 1 2 2 2 2 2 3 3 3 3 4 4 4 4 4 5 5 5 5 5 5 5 5 5 5 5 5 5 4
-0 0 0 1 1 1 1 1 1 1 1 2 2 2 2 2 3 3 3 3 3 4 4 4 4 4 4 4 5 5 5 5 5 5 4 4 4 4
-0 -0 0 0 1 1 1 1 1 1 2 2 2 2 2 3 3 3 3 3 3 3 3 3 3 3 4 4 4 4 4 4 4 4 4 4 4 3
-1 -0 -0 -0 0 0 1 1 1 1 2 2 2 2 2 3 3 3 3 3 3 3 3 3 3 3 3 3 3 4 4 4 4 3 3 3 3 3
-1 -1 -1 -0 -0 -0 0 1 1 1 1 2 2 2 2 2 3 3 3 3 2 2 2 2 2 2 2 3 3 3 3 3 3 3 3 3 3 2
-1 -1 -1 -1 -0 -0 0 0 1 1 1 2 2 2 2 2 2 2 2 2 2 2 2 2 1 1 2 2 2 2 3 2 2 2 2 2 2 2
-1 -1 -1 -1 -0 -0 -0 0 0 1 1 1 1 2 2 2 2 2 2 2 2 1 2 2 1 1 1 1 1 2 2 2 2 2 2 2 2 2
-1 -1 -1 -1 -1 -0 -0 -0 0 1 1 1 1 2 2 2 2 2 2 2 2 2 2 2 1 1 1 0 1 1 1 1 1 2 2 1 1 1
-2 -1 -1 -1 -1 -1 -0 -0 0 1 1 1 1 1 1 2 2 2 2 2 2 2 2 2 2 2 1 0 0 0 1 1 1 1 1 1 1 1
-1 -1 -1 -1 -1 -1 -0 -0 0 0 1 1 1 1 1 1 1 1 1 2 1 1 1 2 2 2 2 1 1 1 0 0 0 1 1 1 0 0
-1 -1 -1 -1 -1 -1 -1 -0 -0 0 0 1 0 1 1 1 1 1 1 1 1 1 1 1 1 1 1 1 1 1 0 0 0 0 0 0 0 -0
-2 -1 -1 -1 -1 -1 -1 -0 -0 0 0 0 0 0 1 1 1 1 1 1 1 1 1 1 1 1 1 1 0 0 0 0 0 0 0 -0 -1 -1
-2 -2 -2 -2 -2 -1 -1 -1 -1 -0 -0 0 0 0 0 0 0 0 1 1 1 1 0 0 0 0 0 -0 -0 -0 -0 -0 -0 -0 -0 -0 -1 -1
-2 -2 -2 -2 -2 -1 -1 -1 -1 -1 -0 -0 0 0 0 0 0 0 0 0 0 0 -0 0 0 1 0 -1 -1 -1 -1 -0 -1 -1 -1 -1 -1 -1
-2 -2 -2 -2 -2 -1 -1 -1 -1 -1 -1 -1 -0 -0 -0 -0 0 0 0 0 0 0 -0 -0 0 0 0 -1 -1 -1 -1 -1 -1 -1 -1 -1 -1 -1
-3 -2 -2 -2 -2 -1 -1 -1 -1 -1 -1 -1 -1 -1 -0 -0 -0 0 0 0 0 -0 -0 -0 -0 -0 -0 -0 -1 -2 -2 -1 -1 -1 -1 -1 -1 -1
-3 -3 -2 -2 -2 -2 -1 -1 -1 -1 -1 -1 -1 -1 -1 -0 -0 0 0 0 -0 -0 -0 -1 -1 -1 -0 -1 -1 -2 -2 -2 -2 -1 -1 -1 -1 -2
-3 -3 -2 -2 -2 -2 -1 -1 -1 -1 -1 -1 -1 -1 -1 -0 -0 -0 0 -0 -0 -1 -1 -1 -1 -1 -1 -1 -2 -2 -2 -2 -2 -2 -2 -2 -1 -1
Wind_Speed
10 11 10 9 9 9 8 8 8 10 11 8 5 5 5 6 9 9 9 12 14 14 15 14 13 13 13 12 11 10 10 9 10 10 11 10 9 8
9 10 11 9 8 8 8 8 9 10 11 8 7 6 6 7 10 8 9 12 13 13 13 13 12 11 10 10 10 9 10 10 10 10 10 10 9 8
11 12 12 11 9 9 8 8 8 8 11 10 7 6 6 7 6 6 7 7 8 12 13 12 10 10 10 9 9 9 9 9 10 9 10 10 8 7
12 12 12 11 11 9 8 9 9 9 9 12 9 7 7 6 5 5 5 5 5 8 10 10 9 9 9 9 8 8 7 8 8 8 8 9 8 7
12 13 13 12 12 9 10 10 9 9 8 9 9 7 5 4 4 4 5 4 4 5 6 7 8 8 8 8 8 7 7 8 8 8 7 7 6 5
12 12 12 12 13 12 11 11 9 9 8 8 8 7 5 3 3 3 3 2 3 2 3 3 5 6 7 7 8 7 7 7 8 8 7 6 5 4
11 11 11 13 15 13 11 9 9 9 8 8 8 6 5 4 4 3 4 2 1 1 1 1 1 2 3 6 7 7 7 8 8 8 7 7 6 4
11 10 10 12 14 17 17 16 14 12 10 9 8 8 7 6 4 4 4 2 2 1 3 1 2 2 2 3 6 7 7 7 8 8 8 7 6 4
10 9 9 10 12 9 12 14 14 17 16 11 10 9 8 7 6 5 5 4 3 3 3 1 1 1 1 3 6 6 7 7 8 8 8 7 6 5
9 9 9 9 9 9 8 8 8 9 11 10 9 8 7 6 7 6 5 3 1 1 3 2 1 1 1 1 4 6 7 8 9 9 8 7 5 4
8 8 9 9 12 12 9 8 7 6 7 9 9 8 9 9 8 5 5 5 3 2 2 2 1 1 1 1 2 5 8 8 8 8 7 6 5 4
7 7 11 11 12 12 8 7 7 6 3 3 3 4 4 5 7 7 7 7 4 2 2 3 3 2 1 1 1 2 4 6 7 7 6 6 5 3
7 6 6 10 11 11 10 7 8 6 3 3 3 3 3 3 3 3 4 6 5 3 4 3 3 2 2 2 1 2 2 2 3 3 4 5 4 3
7 6 6 10 10 11 8 7 8 6 3 3 3 3 3 3 3 3 3 3 3 4 5 4 3 4 4 3 2 1 2 2 2 2 2 4 4 4
6 8 9 9 8 6 5 5 4 2 2 3 3 3 3 3 3 4 4 5 5 4 3 3 5 4 4 4 4 3 2 1 2 3 2 2 2 2
6 5 6 5 4 3 4 3 2 2 2 2 2 2 3 4 3 4 4 5 5 4 4 4 5 6 4 4 5 4 3 2 2 3 3 2 2 2
5 3 3 3 3 3 2 2 1 0 1 1 2 3 4 4 3 3 4 4 4 4 4 4 6 7 6 5 5 5 4 3 3 3 3 3 2 1
4 2 3 3 2 2 2 2 1 1 1 1 2 3 4 4 4 4 4 5 6 5 5 5 6 5 4 5 5 4 4 3 3 3 3 3 2 1
4 3 2 2 2 2 2 1 1 1 1 2 3 3 4 4 4 5 5 5 5 6 5 4 4 5 7 4 3 4 3 3 3 3 2 2 1 0
3 2 2 2 2 1 1 1 1 2 2 3 3 3 4 4 5 5 5 6 6 6 5 3 3 4 6 5 3 2 3 3 3 3 2 2 2 1
3 3 3 2 2 1 1 1 2 2 3 3 3 3 4 4 5 5 5 8 7 7 6 4 3 6 5 5 6 4 4 5 4 3 3 3 2 2
3 3 3 3 2 1 1 2 3 3 4 4 4 3 3 4 5 6 6 6 6 7 7 5 5 5 5 7 8 6 5 5 8 10 8 5 2 1
4 3 3 3 2 2 2 3 4 3 3 3 4 3 3 4 4 5 6 7 7 8 8 7 5 5 6 7 7 7 7 6 5 6 6 9 9 7
Wind_Direction
253 249 250 251 249 251 249 245 253 271 276 270 262 236 236 252 256 250 248 253 255 254 252 250 249 247 245 239 227 222 216 217 215 214 213 217 224 235
256 253 253 252 252 251 247 246 242 250 267 265 269 270 253 263 264 257 251 256 253 252 248 245 244 242 231 221 212 213 214 210 206 209 209 213 218 227
258 256 256 253 252 251 248 249 248 246 261 273 272 272 253 252 260 255 254 248 249 247 243 238 235 228 219 211 206 208 210 203 200 203 206 209 214 224
260 259 260 257 251 250 248 250 251 246 250 266 273 272 260 246 245 253 261 254 246 244 237 230 225 221 215 209 204 202 201 189 185 191 200 204 212 221
260 258 258 255 253 249 245 248 252 253 247 253 266 271 267 250 245 264 262 253 251 236 227 225 222 218 209 204 197 191 192 184 179 180 185 187 192 198
263 258 256 252 251 247 248 245 247 248 245 246 257 262 260 249 227 240 265 251 249 240 231 226 220 213 204 197 187 182 181 179 177 176 175 172 173 181
268 261 257 258 258 256 255 246 242 243 240 242 247 250 249 233 228 225 242 253 270 218 161 191 172 178 185 177 172 172 172 173 173 171 169 165 163 164
270 268 266 264 265 266 265 261 254 245 238 239 243 241 239 231 224 216 214 235 266 189 150 141 126 150 167 159 151 155 160 165 165 163 159 151 144 140
271 272 274 272 273 267 269 269 264 253 244 242 243 241 236 224 215 220 219 221 239 191 141 167 111 132 129 130 134 142 148 153 155 150 146 140 137 132
271 270 270 271 269 271 269 265 263 254 247 244 239 240 238 226 214 219 204 174 154 163 150 178 147 114 70 86 124 136 141 143 144 141 137 134 130 124
280 275 272 268 269 273 270 265 267 263 256 245 242 237 233 227 216 192 175 160 188 211 146 152 153 107 85 78 100 128 135 136 135 136 135 132 126 120
286 279 278 275 271 271 263 257 260 261 247 249 248 248 235 221 223 210 188 176 178 204 178 145 152 132 106 40 62 106 121 127 130 130 130 130 128 128
290 284 277 283 281 273 269 257 254 257 240 230 236 226 216 207 205 198 186 182 183 199 180 153 159 148 139 130 59 73 102 118 118 116 111 117 119 118
289 287 284 288 286 284 277 263 263 255 233 226 228 217 197 191 180 158 137 138 151 169 173 166 165 162 146 145 144 99 89 100 118 125 114 109 110 98
298 296 296 297 292 287 279 282 273 246 223 211 218 207 189 170 144 124 112 103 86 86 125 155 153 153 144 150 152 139 116 94 124 127 126 131 137 127
310 316 323 328 328 323 314 302 272 230 211 200 189 170 152 141 138 139 133 125 106 80 64 92 129 138 129 126 135 134 135 142 127 121 121 110 105 95
327 344 355 346 345 347 350 348 355 72 166 166 154 142 134 129 127 128 132 124 121 126 109 90 88 92 95 118 121 122 123 121 129 125 112 101 87 90
353 8 357 354 352 350 357 5 19 41 87 133 129 129 130 129 124 119 121 126 128 131 130 126 121 111 91 58 52 115 113 118 122 117 113 109 82 33
11 10 355 349 348 353 8 25 20 29 79 99 115 118 121 123 125 126 128 128 127 127 126 131 133 132 130 121 40 35 116 120 116 106 98 101 112 294
8 359 344 341 348 9 26 38 55 64 73 83 93 106 113 117 121 124 128 130 127 123 116 104 105 122 131 133 122 58 54 122 126 113 85 79 65 36
353 351 349 353 3 23 28 54 80 84 83 85 88 90 104 112 117 123 124 125 122 119 116 108 99 108 110 106 99 78 51 53 88 118 112 101 75 45
354 355 353 353 2 48 71 89 87 88 86 87 87 84 88 102 117 121 123 124 119 115 110 105 100 99 99 111 112 106 86 66 61 64 64 73 109 111
353 353 356 1 16 44 85 90 91 94 94 95 92 91 92 98 105 111 116 117 115 115 115 109 97 91 97 109 112 106 97 86 75 67 49 41 53 63
Height
1399 1398 1398 1397 1397 1397 1396 1396 1395 1390 1386 1386 1387 1388 1389 1390 1390 1391 1392 1393 1395 1396 1398 1400 1402 1403 1405 1406 1409 1410 1412 1414 1416 1418 1420 1423 1424 1425
1392 1391 1390 1389 1389 1389 1389 1389 1388 1386 1381 1379 1381 1382 1383 1383 1384 1384 1385 1386 1387 1389 1391 1393 1394 1396 1397 1399 1401 1403 1406 1408 1410 1412 1414 1416 1418 1419
1384 1383 1382 1382 1381 1381 1381 1381 1380 1380 1376 1373 1375 1375 1376 1376 1377 1378 1378 1379 1380 1382 1384 1386 1387 1389 1391 1393 1395 1397 1400 1401 1404 1406 1408 1410 1412 1413
1376 1375 1374 1374 1373 1373 1373 1372 1372 1372 1371 1368 1368 1369 1369 1370 1370 1371 1371 1372 1374 1375 1377 1379 1381 1383 1385 1387 1389 1392 1394 1396 1398 1401 1403 1405 1407 1408
1368 1366 1365 1365 1364 1364 1365 1364 1365 1365 1365 1364 1362 1363 1363 1364 1365 1365 1366 1367 1368 1369 1371 1373 1375 1377 1379 1381 1383 1386 1389 1391 1393 1396 1398 1400 1402 1403
1360 1358 1357 1357 1356 1356 1356 1356 1357 1357 1358 1358 1357 1358 1359 1359 1360 1359 1360 1361 1362 1364 1366 1368 1369 1372 1374 1376 1378 1381 1384 1386 1388 1391 1393 1395 1397 1399
1352 1351 1350 1349 1348 1348 1348 1348 1349 1350 1351 1351 1351 1352 1353 1353 1354 1355 1355 1356 1357 1359 1361 1362 1365 1366 1369 1371 1374 1376 1379 1382 1384 1386 1388 1390 1393 1395
1345 1343 1342 1342 1341 1341 1341 1341 1342 1342 1343 1344 1345 1346 1347 1348 1350 1351 1352 1353 1353 1356 1357 1359 1361 1363 1365 1367 1369 1372 1375 1378 1380 1382 1385 1387 1389 1391
1339 1337 1336 1335 1334 1333 1333 1333 1334 1335 1337 1339 1339 1340 1341 1343 1344 1346 1347 1348 1349 1351 1354 1355 1358 1359 1362 1364 1366 1369 1372 1375 1377 1379 1381 1383 1386 1388
1333 1331 1330 1328 1328 1328 1327 1326 1327 1329 1331 1333 1334 1335 1337 1338 1340 1342 1343 1344 1346 1348 1351 1352 1354 1357 1359 1362 1364 1367 1369 1372 1375 1377 1378 1380 1383 1385
1327 1326 1325 1323 1323 1323 1323 1321 1322 1323 1326 1328 1329 1331 1332 1334 1336 1338 1339 1340 1342 1344 1348 1350 1352 1354 1357 1359 1362 1365 1367 1369 1372 1375 1377 1379 1381 1382
1322 1321 1320 1319 1318 1318 1318 1318 1317 1318 1320 1322 1324 1325 1327 1329 1331 1333 1334 1336 1338 1341 1344 1347 1349 1352 1355 1358 1360 1363 1365 1367 1370 1372 1375 1377 1379 1380
1318 1316 1314 1314 1313 1313 1314 1314 1313 1315 1316 1318 1319 1320 1322 1324 1326 1328 1331 1333 1335 1337 1341 1344 1346 1349 1352 1355 1358 1361 1363 1366 1368 1371 1373 1375 1376 1378
1314 1312 1310 1309 1309 1308 1308 1309 1310 1311 1312 1313 1314 1315 1317 1319 1322 1325 1328 1330 1333 1335 1338 1341 1343 1346 1349 1352 1356 1359 1362 1365 1367 1369 1371 1373 1374 1376
1311 1309 1307 1306 1305 1304 1304 1305 1306 1307 1308 1309 1310 1311 1313 1316 1319 1322 1325 1327 1330 1333 1336 1339 1342 1345 1348 1350 1353 1357 1360 1363 1366 1367 1370 1371 1372 1374
1308 1306 1304 1303 1303 1302 1302 1302 1302 1304 1305 1306 1307 1309 1311 1314 1316 1319 1322 1325 1327 1330 1334 1337 1341 1344 1347 1350 1353 1356 1359 1362 1364 1366 1369 1370 1372 1373
1307 1305 1303 1302 1301 1300 1300 1300 1301 1302 1303 1304 1306 1307 1309 1312 1315 1318 1321 1323 1325 1328 1332 1336 1340 1344 1347 1350 1353 1355 1358 1361 1364 1366 1368 1370 1371 1372
1307 1305 1303 1302 1301 1300 1300 1300 1301 1302 1303 1304 1305 1307 1309 1311 1314 1317 1320 1323 1325 1328 1332 1335 1339 1343 1347 1351 1354 1356 1358 1360 1363 1366 1368 1369 1370 1372
1307 1305 1304 1303 1302 1302 1302 1301 1302 1303 1304 1305 1306 1307 1309 1312 1314 1317 1320 1323 1325 1329 1332 1336 1339 1341 1344 1349 1354 1357 1359 1360 1363 1365 1367 1369 1370 1371
1307 1306 1305 1304 1304 1303 1303 1303 1303 1304 1305 1306 1307 1308 1310 1312 1315 1318 1321 1323 1326 1330 1333 1337 1340 1343 1345 1349 1353 1358 1360 1362 1363 1365 1367 1369 1371 1372
1307 1307 1306 1305 1305 1305 1305 1305 1305 1305 1306 1307 1308 1310 1312 1314 1316 1319 1321 1325 1328 1331 1334 1338 1341 1345 1347 1350 1354 1358 1361 1364 1365 1366 1368 1369 1370 1372
1308 1308 1307 1306 1306 1306 1306 1306 1307 1307 1308 1309 1311 1312 1314 1316 1317 1320 1323 1326 1329 1333 1336 1340 1344 1347 1349 1351 1354 1358 1361 1364 1366 1368 1370 1371 1371 1372
1310 1309 1308 1308 1308 1308 1308 1308 1309 1310 1311 1312 1313 1314 1316 1318 1320 1322 1325 1328 1331 1335 1338 1342 1346 1349 1351 1354 1357 1360 1363 1365 1367 1369 1372 1373 1374 1375